CW0318 Weather Reports


Display with metric or nautical units.
time (UTC)temp
F
wind
direction
speed
MPH
gust
MPH
rain 1hr
in
rain 24hr
in
rain mn
in
humidity
%
barometer
mb
20260505230244 52 15 8.0 11.0 0.00 0.00 0.00 72 1007.9
20260505225305 52 336 4.0 16.0 0.00 0.00 0.00 72 1007.7
20260505224244 53 5 3.0 13.0 0.00 0.00 0.00 72 1007.3
20260505223243 53 288 2.0 13.0 0.00 0.00 0.00 72 1007.5
20260505222243 53 344 8.0 17.0 0.00 0.00 0.00 71 1007.0
20260505221243 54 348 9.0 14.0 0.00 0.00 0.00 71 1006.7
20260505220243 54 355 3.0 7.0 0.00 0.00 0.00 73 1006.9
20260505215243 54 19 4.0 13.0 0.00 0.00 0.00 74 1007.2
20260505214243 54 344 5.0 10.0 0.00 0.00 0.00 74 1006.8
20260505213243 54 350 3.0 6.0 0.00 0.00 0.00 73 1007.2
20260505212243 54 355 2.0 15.0 0.00 0.00 0.00 73 1007.0
20260505211242 54 5 3.0 15.0 0.00 0.00 0.00 73 1006.8
20260505210242 54 325 8.0 10.0 0.00 0.00 0.00 74 1006.4
20260505205242 54 294 3.0 17.0 0.00 0.00 0.00 75 1006.6
20260505204242 54 221 4.0 17.0 0.00 0.00 0.00 77 1006.7
20260505203242 54 327 5.0 10.0 0.00 0.00 0.00 78 1006.9
20260505202242 54 200 3.0 15.0 0.00 0.00 0.00 78 1006.6
20260505201302 55 225 4.0 13.0 0.00 0.00 0.00 78 1006.3
20260505200242 55 61 2.0 5.0 0.00 0.00 0.00 78 1006.2
20260505195242 55 341 7.0 16.0 0.00 0.00 0.00 78 1006.5
20260505194241 55 341 5.0 16.0 0.00 0.00 0.00 78 1006.3
20260505193241 55 355 5.0 7.0 0.00 0.00 0.00 79 1006.3
20260505192241 55 360 2.0 13.0 0.00 0.00 0.00 79 1005.9
20260505191241 55 26 5.0 11.0 0.00 0.00 0.00 79 1005.9
20260505190241 56 360 8.0 10.0 0.00 0.00 0.00 79 1005.9
20260505185241 56 15 2.0 14.0 0.00 0.00 0.00 80 1005.6
20260505184241 56 5 5.0 11.0 0.00 0.00 0.00 80 1005.7
20260505183240 56 23 4.0 5.0 0.00 0.00 0.00 81 1005.7
20260505182300 56 311 2.0 12.0 0.00 0.00 0.00 81 1005.9
20260505181240 56 41 4.0 12.0 0.00 0.00 0.00 81 1006.0
20260505180240 56 176 3.0 12.0 0.00 0.00 0.00 82 1005.6
20260505175300 56 5 3.0 14.0 0.00 0.00 0.00 83 1005.0
20260505174240 56 209 2.0 13.0 0.00 0.00 0.00 83 1005.1
20260505173240 56 40 3.0 10.0 0.00 0.00 0.00 83 1004.9
20260505172239 56 355 5.0 15.0 0.00 0.00 0.00 83 1005.1
20260505171259 56 15 6.0 15.0 0.00 0.00 0.00 83 1005.1
20260505170239 57 360 5.0 9.0 0.00 0.00 0.00 84 1004.2
20260505165239 57 348 8.0 12.0 0.00 0.00 0.00 83 1004.2
20260505164239 58 13 3.0 12.0 0.00 0.00 0.00 84 1003.8
20260505163239 58 324 2.0 5.0 0.00 0.00 0.00 84 1003.9
20260505162239 59 16 3.0 12.0 0.00 0.00 0.00 83 1003.9
20260505161238 59 32 4.0 11.0 0.00 0.00 0.00 83 1003.5
20260505160239 60 39 3.0 5.0 0.00 0.00 0.00 82 1003.4
20260505153238 65 5 0.0 3.0 0.00 0.00 0.00 80 1002.8
20260505152238 66 60 2.0 10.0 0.00 0.00 0.00 82 1002.7
20260505151238 67 59 3.0 10.0 0.00 0.00 0.00 81 1002.5
20260505150238 68 334 0.0 2.0 0.00 0.00 0.00 80 1002.3
20260505140317 68 80 1.0 5.0 0.00 0.00 0.00 80 1001.9
20260505130236 66 74 8.0 9.0 0.00 0.00 0.00 82 1002.0
20260505124236 66 85 3.0 9.0 0.00 0.00 0.00 82 1002.2
20260505123256 66 66 3.0 5.0 0.00 0.00 0.00 82 1002.0
20260505122235 65 53 2.0 10.0 0.00 0.00 0.00 83 1001.6
20260505121235 65 63 3.0 9.0 0.00 0.00 0.00 83 1001.8
20260505120235 65 82 9.0 9.0 0.00 0.00 0.00 83 1001.9
20260505115235 65 62 3.0 10.0 0.00 0.00 0.00 83 1001.8
20260505114235 65 41 3.0 10.0 0.00 0.00 0.00 83 1001.6
20260505113235 65 78 3.0 3.0 0.00 0.00 0.00 83 1001.7
20260505112235 66 5 3.0 10.0 0.00 0.00 0.00 82 1001.7
20260505111254 66 61 3.0 10.0 0.00 0.00 0.00 83 1001.5
20260505110234 65 83 3.0 6.0 0.00 0.00 0.00 83 1001.2
20260505101234 65 46 2.0 10.0 0.00 0.00 0.00 84 1000.6
20260505100233 65 47 4.0 10.0 0.00 0.00 0.00 83 1000.4
20260505095253 65 61 5.0 9.0 0.00 0.00 0.00 84 1000.2
20260505094233 65 54 5.0 8.0 0.00 0.00 0.00 84 1000.3
20260505093233 65 52 3.0 7.0 0.00 0.00 0.00 84 1000.3
20260505092253 65 63 7.0 13.0 0.00 0.00 0.00 84 1000.5
20260505091233 65 53 4.0 13.0 0.00 0.00 0.00 83 1000.6
20260505090233 65 77 4.0 13.0 0.00 0.00 0.00 82 1000.6
20260505085233 66 65 5.0 10.0 0.00 0.00 0.00 80 1000.8
20260505084232 66 55 5.0 10.0 0.00 0.00 0.00 79 1000.7
20260505083232 67 57 5.0 8.0 0.00 0.00 0.00 77 1000.8
20260505082232 68 74 11.0 11.0 0.00 0.00 0.00 76 1000.7
20260505081232 68 52 4.0 9.0 0.00 0.00 0.00 76 1000.6
20260505080232 68 69 5.0 8.0 0.00 0.00 0.00 76 1000.5
20260505075232 68 70 2.0 8.0 0.00 0.00 0.00 76 1001.2
20260505074232 68 34 4.0 8.0 0.00 0.00 0.00 76 1001.3
20260505073231 68 27 2.0 6.0 0.00 0.00 0.00 76 1001.4
20260505072232 68 26 3.0 7.0 0.00 0.00 0.00 76 1001.5
20260505071231 68 62 1.0 4.0 0.00 0.00 0.00 75 1001.6
20260505070231 68 10 2.0 2.0 0.00 0.00 0.00 75 1001.6
20260505065231 68 54 1.0 4.0 0.00 0.00 0.00 75 1001.8
20260505064231 68 22 2.0 4.0 0.00 0.00 0.00 74 1002.2
20260505063231 68 351 2.0 3.0 0.00 0.00 0.00 74 1002.0
20260505062231 68 19 1.0 3.0 0.00 0.00 0.00 73 1001.9
20260505061231 68 329 0.0 3.0 0.00 0.00 0.00 73 1001.7
20260505060230 69 61 1.0 2.0 0.00 0.00 0.00 73 1001.4
20260505055230 69 148 0.0 7.0 0.00 0.00 0.00 72 1001.0
20260505054250 69 149 3.0 7.0 0.00 0.00 0.00 72 1001.0
20260505053250 69 121 0.0 5.0 0.00 0.00 0.00 71 1001.0
20260505052230 69 108 2.0 8.0 0.00 0.00 0.00 71 1001.0
20260505051230 69 205 3.0 8.0 0.00 0.00 0.00 71 1001.2
20260505050230 69 138 2.0 4.0 0.00 0.00 0.00 70 1000.9
20260505041249 70 97 2.0 9.0 0.00 0.00 0.00 68 1001.1
20260505040229 70 188 4.0 4.0 0.00 0.00 0.00 67 1001.6
20260505035229 70 85 0.0 10.0 0.00 0.00 0.00 66 1001.7
20260505034228 70 163 10.0 10.0 0.00 0.00 0.00 65 1001.7
20260505033228 70 82 2.0 4.0 0.00 0.00 0.00 65 1001.8
20260505032248 70 68 2.0 10.0 0.00 0.00 0.00 65 1002.0
20260505031228 71 71 3.0 8.0 0.00 0.00 0.00 65 1002.1
20260505030228 71 232 3.0 8.0 0.00 0.00 0.00 64 1002.2
20260505025228 71 129 2.0 9.0 0.00 0.00 0.00 63 1002.4
20260505024228 72 62 2.0 9.0 0.00 0.00 0.00 62 1002.4
20260505023227 72 139 2.0 3.0 0.00 0.00 0.00 62 1002.7
20260505022247 72 110 3.0 7.0 0.00 0.00 0.00 61 1002.3
20260505021227 72 93 3.0 6.0 0.00 0.00 0.00 62 1002.1
20260505020227 72 84 1.0 6.0 0.00 0.00 0.00 61 1002.3
20260505015227 73 96 3.0 7.0 0.00 0.00 0.00 61 1002.4
20260505014227 73 136 3.0 7.0 0.00 0.00 0.00 60 1002.2
20260505013227 74 212 1.0 3.0 0.00 0.00 0.00 61 1002.3
20260505012227 74 117 2.0 9.0 0.00 0.00 0.00 60 1002.2
20260505011227 74 211 2.0 9.0 0.00 0.00 0.00 58 1002.1
20260505010226 75 220 0.0 3.0 0.00 0.00 0.00 58 1002.2
20260505005226 75 173 1.0 9.0 0.00 0.00 0.00 58 1002.1
20260505004246 75 151 1.0 9.0 0.00 0.00 0.00 58 1002.1
20260505003226 76 181 0.0 3.0 0.00 0.00 0.00 58 1002.2
20260505002226 76 229 1.0 10.0 0.00 0.00 0.00 57 1002.2
20260505001226 76 158 2.0 10.0 0.00 0.00 0.00 57 1002.3
20260505000226 77 168 3.0 7.0 0.00 0.00 0.00 56 1002.3
20260504235245 77 214 6.0 10.0 0.00 0.00 0.00 56 1002.3
20260504234225 77 136 1.0 10.0 0.00 0.00 0.00 56 1002.4
20260504233225 77 199 5.0 7.0 0.00 0.00 0.00 55 1002.5
20260504232225 77 222 5.0 10.0 0.00 0.00 0.00 55 1002.5
20260504231225 78 199 3.0 9.0 0.00 0.00 0.00 54 1002.7